Year,Month,Day,Hour,Minute,Value (Times are PST for temperature in C)
2014,07,17,09,26,14.90
2014,07,17,09,27,14.90
2014,07,17,09,28,14.90
2014,07,17,09,29,14.90
2014,07,17,09,30,14.90
2014,07,17,09,31,14.90
2014,07,17,09,32,14.80
2014,07,17,09,33,14.80
2014,07,17,09,34,14.80
2014,07,17,09,35,14.80
2014,07,17,09,36,14.80
2014,07,17,09,37,14.80
2014,07,17,09,38,14.80
2014,07,17,09,39,14.80
2014,07,17,09,40,14.90
2014,07,17,09,41,15.00
2014,07,17,09,42,15.20
2014,07,17,09,43,15.30
2014,07,17,09,44,15.30
2014,07,17,09,45,15.20
2014,07,17,09,46,15.20
2014,07,17,09,47,15.10
2014,07,17,09,48,15.10
2014,07,17,09,49,15.00
2014,07,17,09,50,14.90
2014,07,17,09,51,14.90
2014,07,17,09,52,14.80
2014,07,17,09,53,14.80
2014,07,17,09,54,14.80
2014,07,17,09,55,14.70
2014,07,17,09,56,14.70
2014,07,17,09,57,14.70
2014,07,17,09,58,14.80
2014,07,17,09,59,14.80
2014,07,17,10,00,14.80
2014,07,17,10,01,14.80
2014,07,17,10,02,14.80
2014,07,17,10,03,14.80
2014,07,17,10,04,14.70
2014,07,17,10,05,14.60
2014,07,17,10,06,14.50
2014,07,17,10,07,14.40
2014,07,17,10,08,14.30
2014,07,17,10,09,14.30
2014,07,17,10,10,14.30
2014,07,17,10,11,14.30
2014,07,17,10,12,14.30
2014,07,17,10,13,14.20
2014,07,17,10,14,14.20
2014,07,17,10,15,14.20
2014,07,17,10,16,14.30
2014,07,17,10,17,14.20
2014,07,17,10,18,14.20
2014,07,17,10,19,14.20
2014,07,17,10,20,14.20
2014,07,17,10,21,14.30
2014,07,17,10,22,14.20
2014,07,17,10,23,14.00
2014,07,17,10,24,13.90
2014,07,17,10,25,13.90
2014,07,17,10,26,13.80
2014,07,17,10,27,13.80
2014,07,17,10,28,13.80
2014,07,17,10,29,13.70
2014,07,17,10,30,13.70
2014,07,17,10,31,13.60
2014,07,17,10,32,13.50
2014,07,17,10,33,13.50
2014,07,17,10,34,13.50
2014,07,17,10,35,13.60
2014,07,17,10,36,13.60
2014,07,17,10,37,13.70
2014,07,17,10,38,13.70
2014,07,17,10,39,13.70
2014,07,17,10,40,13.70
2014,07,17,10,41,13.70
2014,07,17,10,42,13.70
2014,07,17,10,43,13.80
2014,07,17,10,44,13.90
2014,07,17,10,45,14.00
2014,07,17,10,46,14.10
2014,07,17,10,47,14.00
2014,07,17,10,48,14.00
2014,07,17,10,49,14.00
2014,07,17,10,50,14.10
2014,07,17,10,51,14.10
2014,07,17,10,52,14.30
2014,07,17,10,53,14.40
2014,07,17,10,54,14.40
2014,07,17,10,55,14.50
2014,07,17,10,56,14.50
2014,07,17,10,57,14.60
2014,07,17,10,58,14.80
2014,07,17,10,59,14.80
2014,07,17,11,00,14.80
2014,07,17,11,01,14.80
2014,07,17,11,02,14.80
2014,07,17,11,03,14.80
2014,07,17,11,04,14.80
2014,07,17,11,05,14.80
2014,07,17,11,06,14.90
2014,07,17,11,07,15.00
2014,07,17,11,08,15.00
2014,07,17,11,09,15.00
2014,07,17,11,10,15.00
2014,07,17,11,11,14.90
2014,07,17,11,12,14.90
2014,07,17,11,13,14.90
2014,07,17,11,14,14.90
2014,07,17,11,15,14.90
2014,07,17,11,16,14.90
2014,07,17,11,17,15.00
2014,07,17,11,18,15.00
2014,07,17,11,19,15.10
2014,07,17,11,20,15.20
2014,07,17,11,21,15.10
2014,07,17,11,22,15.10
2014,07,17,11,23,15.10
2014,07,17,11,24,15.10
2014,07,17,11,25,15.20
2014,07,17,11,26,15.30
2014,07,17,11,27,15.30
2014,07,17,11,28,15.30
2014,07,17,11,29,15.30
2014,07,17,11,30,15.30
2014,07,17,11,31,15.30
2014,07,17,11,32,15.30
2014,07,17,11,33,15.40
2014,07,17,11,34,15.50
2014,07,17,11,35,15.50
2014,07,17,11,36,15.50
2014,07,17,11,37,15.50
2014,07,17,11,38,15.60
2014,07,17,11,39,15.60
2014,07,17,11,40,15.60
2014,07,17,11,41,15.70
2014,07,17,11,42,15.60
2014,07,17,11,43,15.70
2014,07,17,11,44,15.80
2014,07,17,11,45,15.80
2014,07,17,11,46,15.90
2014,07,17,11,47,15.90
2014,07,17,11,48,15.90
2014,07,17,11,49,15.90
2014,07,17,11,50,15.90
2014,07,17,11,51,15.90
2014,07,17,11,52,15.90
2014,07,17,11,53,15.90
2014,07,17,11,54,16.00
2014,07,17,11,55,16.10
2014,07,17,11,56,16.10
2014,07,17,11,57,16.00
2014,07,17,11,58,15.90
2014,07,17,11,59,15.80
2014,07,17,12,00,15.90
2014,07,17,12,01,16.00
2014,07,17,12,02,16.10
2014,07,17,12,03,16.00
2014,07,17,12,04,15.90
2014,07,17,12,05,15.80
2014,07,17,12,06,15.80
2014,07,17,12,07,15.90
2014,07,17,12,08,16.00
2014,07,17,12,09,15.90
2014,07,17,12,10,15.90
2014,07,17,12,11,16.00
2014,07,17,12,12,16.10
2014,07,17,12,13,16.10
2014,07,17,12,14,15.90
2014,07,17,12,15,15.90
2014,07,17,12,16,15.90
2014,07,17,12,17,15.90
2014,07,17,12,18,15.80
2014,07,17,12,19,15.80
2014,07,17,12,20,15.80
2014,07,17,12,21,15.90
2014,07,17,12,22,15.90
2014,07,17,12,23,15.80
2014,07,17,12,24,15.80
2014,07,17,12,25,15.80
2014,07,17,12,26,15.80
2014,07,17,12,27,15.80
2014,07,17,12,28,15.80
2014,07,17,12,29,15.80
2014,07,17,12,30,15.90
2014,07,17,12,31,16.10
2014,07,17,12,32,16.10
2014,07,17,12,33,16.10
2014,07,17,12,34,16.20
2014,07,17,12,35,16.30
2014,07,17,12,36,16.30
2014,07,17,12,37,16.30
2014,07,17,12,38,16.40
2014,07,17,12,39,16.40
2014,07,17,12,40,16.60
2014,07,17,12,41,16.70
2014,07,17,12,42,16.60
2014,07,17,12,43,16.50
2014,07,17,12,44,16.60
2014,07,17,12,45,16.50
2014,07,17,12,46,16.40
2014,07,17,12,47,16.40
2014,07,17,12,48,16.50
2014,07,17,12,49,16.70
2014,07,17,12,50,16.70
2014,07,17,12,51,16.70
2014,07,17,12,52,16.70
2014,07,17,12,53,16.70
2014,07,17,12,54,16.50
2014,07,17,12,55,16.40
2014,07,17,12,56,16.40
2014,07,17,12,57,16.40
2014,07,17,12,58,16.50
2014,07,17,12,59,16.60
2014,07,17,13,00,16.50
2014,07,17,13,01,16.40
2014,07,17,13,02,16.50
2014,07,17,13,03,16.50
2014,07,17,13,04,16.40
2014,07,17,13,05,16.40
2014,07,17,13,06,16.40
2014,07,17,13,07,16.40
2014,07,17,13,08,16.40
2014,07,17,13,09,16.30
2014,07,17,13,10,16.30
2014,07,17,13,11,16.40
2014,07,17,13,12,16.40
2014,07,17,13,13,16.40
2014,07,17,13,14,16.40
2014,07,17,13,15,16.30
2014,07,17,13,16,16.20
2014,07,17,13,17,16.10
2014,07,17,13,18,16.10
2014,07,17,13,19,16.00
2014,07,17,13,20,15.90
2014,07,17,13,21,15.80
2014,07,17,13,22,15.80
2014,07,17,13,23,15.80
2014,07,17,13,24,15.80
2014,07,17,13,25,15.80
2014,07,17,13,26,15.90
2014,07,17,13,27,16.00
2014,07,17,13,28,16.10
2014,07,17,13,29,16.00
2014,07,17,13,30,15.80
2014,07,17,13,31,15.70
2014,07,17,13,32,15.60
2014,07,17,13,33,15.60
2014,07,17,13,34,15.60
2014,07,17,13,35,15.60
2014,07,17,13,36,15.70
2014,07,17,13,37,15.70
2014,07,17,13,38,15.80
2014,07,17,13,39,15.90
2014,07,17,13,40,16.00
2014,07,17,13,41,16.10
2014,07,17,13,42,16.00
2014,07,17,13,43,15.80
2014,07,17,13,44,15.80
2014,07,17,13,45,15.80
2014,07,17,13,46,15.80
2014,07,17,13,47,15.70
2014,07,17,13,48,15.70
2014,07,17,13,49,15.80
2014,07,17,13,50,15.70
2014,07,17,13,51,15.70
2014,07,17,13,52,15.70
2014,07,17,13,53,15.60
2014,07,17,13,54,15.50
2014,07,17,13,55,15.50
2014,07,17,13,56,15.40
2014,07,17,13,57,15.50
2014,07,17,13,58,15.60
2014,07,17,13,59,15.60
2014,07,17,14,00,15.50
2014,07,17,14,01,15.50
2014,07,17,14,02,15.40
2014,07,17,14,03,15.50
2014,07,17,14,04,15.50
2014,07,17,14,05,15.40
2014,07,17,14,06,15.30
2014,07,17,14,07,15.30
2014,07,17,14,08,15.20
2014,07,17,14,09,15.20
2014,07,17,14,10,15.30
2014,07,17,14,11,15.40
2014,07,17,14,12,15.40
2014,07,17,14,13,15.30
2014,07,17,14,14,15.40
2014,07,17,14,15,15.50
2014,07,17,14,16,15.50
2014,07,17,14,17,15.40
2014,07,17,14,18,15.40
2014,07,17,14,19,15.30
2014,07,17,14,20,15.40
2014,07,17,14,21,15.50
2014,07,17,14,22,15.50
2014,07,17,14,23,15.60
2014,07,17,14,24,15.60
2014,07,17,14,25,15.50
2014,07,17,14,26,15.50
2014,07,17,14,27,15.60
2014,07,17,14,28,15.60
2014,07,17,14,29,15.60
2014,07,17,14,30,15.60
2014,07,17,14,31,15.50
2014,07,17,14,32,15.40
2014,07,17,14,33,15.30
2014,07,17,14,34,15.20
2014,07,17,14,35,15.20
2014,07,17,14,36,15.10
2014,07,17,14,37,15.00
2014,07,17,14,38,15.10
2014,07,17,14,39,15.10
2014,07,17,14,40,15.10
2014,07,17,14,41,15.20
2014,07,17,14,42,15.30
2014,07,17,14,43,15.10
2014,07,17,14,44,15.00
2014,07,17,14,45,14.90
2014,07,17,14,46,14.90
2014,07,17,14,47,14.80
2014,07,17,14,48,14.80
2014,07,17,14,49,14.80
2014,07,17,14,50,14.80
2014,07,17,14,51,14.90
2014,07,17,14,52,15.00
2014,07,17,14,53,15.00
2014,07,17,14,54,15.00
2014,07,17,14,55,15.10
2014,07,17,14,56,15.10
2014,07,17,14,57,15.30
2014,07,17,14,58,15.30
2014,07,17,14,59,15.20
2014,07,17,15,00,15.00
2014,07,17,15,01,14.90
2014,07,17,15,02,14.80
2014,07,17,15,03,14.60
2014,07,17,15,04,14.60
2014,07,17,15,05,14.60
2014,07,17,15,06,14.60
2014,07,17,15,07,14.70
2014,07,17,15,08,14.80
2014,07,17,15,09,14.80
2014,07,17,15,10,14.80
2014,07,17,15,11,14.80
2014,07,17,15,12,14.70
2014,07,17,15,13,14.80
2014,07,17,15,14,14.80
2014,07,17,15,15,14.90
2014,07,17,15,16,14.90
2014,07,17,15,17,14.90
2014,07,17,15,18,14.80
2014,07,17,15,19,14.80
2014,07,17,15,20,14.70
2014,07,17,15,21,14.70
2014,07,17,15,22,14.80
2014,07,17,15,23,14.80
2014,07,17,15,24,14.90
2014,07,17,15,25,15.00
2014,07,17,15,26,15.00
2014,07,17,15,27,15.00
2014,07,17,15,28,15.00
2014,07,17,15,29,15.10
2014,07,17,15,30,15.10
2014,07,17,15,31,15.00
2014,07,17,15,32,14.90
2014,07,17,15,33,14.80
2014,07,17,15,34,14.90
2014,07,17,15,35,14.90
2014,07,17,15,36,14.70
2014,07,17,15,37,14.60
2014,07,17,15,38,14.50
2014,07,17,15,39,14.40
2014,07,17,15,40,14.30
2014,07,17,15,41,14.30
2014,07,17,15,42,14.30
2014,07,17,15,43,14.20
2014,07,17,15,44,14.20
2014,07,17,15,45,14.20
2014,07,17,15,46,14.20
2014,07,17,15,47,14.30
2014,07,17,15,48,14.30
2014,07,17,15,49,14.30
2014,07,17,15,50,14.40
2014,07,17,15,51,14.40
2014,07,17,15,52,14.40
2014,07,17,15,53,14.50
2014,07,17,15,54,14.40
2014,07,17,15,55,14.40
2014,07,17,15,56,14.30
2014,07,17,15,57,14.30
2014,07,17,15,58,14.30
2014,07,17,15,59,14.40
2014,07,17,16,00,14.40
2014,07,17,16,01,14.30
2014,07,17,16,02,14.20
2014,07,17,16,03,14.20
2014,07,17,16,04,14.20
2014,07,17,16,05,14.20
2014,07,17,16,06,14.20
2014,07,17,16,07,14.20
2014,07,17,16,08,14.30
2014,07,17,16,09,14.30
2014,07,17,16,10,14.40
2014,07,17,16,11,14.40
2014,07,17,16,12,14.30
2014,07,17,16,13,14.30
2014,07,17,16,14,14.30
2014,07,17,16,15,14.30
2014,07,17,16,16,14.30
2014,07,17,16,17,14.20
2014,07,17,16,18,14.20
2014,07,17,16,19,14.20
2014,07,17,16,20,14.20
2014,07,17,16,21,14.20
2014,07,17,16,22,14.20
2014,07,17,16,23,14.10
2014,07,17,16,24,14.00
2014,07,17,16,25,14.10
2014,07,17,16,26,14.40
2014,07,17,16,27,14.50
2014,07,17,16,28,14.70
2014,07,17,16,29,14.80
2014,07,17,16,30,14.70
2014,07,17,16,31,14.60
2014,07,17,16,32,14.60
2014,07,17,16,33,14.50
2014,07,17,16,34,14.50
2014,07,17,16,35,14.50
2014,07,17,16,36,14.50
2014,07,17,16,37,14.30
2014,07,17,16,38,14.20
2014,07,17,16,39,14.10
2014,07,17,16,40,14.10
2014,07,17,16,41,14.10
2014,07,17,16,42,14.10
2014,07,17,16,43,14.20
2014,07,17,16,44,14.20
2014,07,17,16,45,14.20
2014,07,17,16,46,14.20
2014,07,17,16,47,14.10
2014,07,17,16,48,14.00
2014,07,17,16,49,14.00
2014,07,17,16,50,14.00
2014,07,17,16,51,14.10
2014,07,17,16,52,14.10
2014,07,17,16,53,14.00
2014,07,17,16,54,14.00
2014,07,17,16,55,13.90
2014,07,17,16,56,13.80
2014,07,17,16,57,13.70
2014,07,17,16,58,13.60
2014,07,17,16,59,13.70
2014,07,17,17,00,13.70
2014,07,17,17,01,13.80
2014,07,17,17,02,13.80
2014,07,17,17,03,13.90
2014,07,17,17,04,13.90
2014,07,17,17,05,13.90
2014,07,17,17,06,13.80
2014,07,17,17,07,13.80
2014,07,17,17,08,13.90
2014,07,17,17,09,13.90
2014,07,17,17,10,13.90
2014,07,17,17,11,14.00
2014,07,17,17,12,14.00
2014,07,17,17,13,14.10
2014,07,17,17,14,14.10
2014,07,17,17,15,14.20
2014,07,17,17,16,14.20
2014,07,17,17,17,14.30
2014,07,17,17,18,14.40
2014,07,17,17,19,14.50
2014,07,17,17,20,14.60
2014,07,17,17,21,14.70
2014,07,17,17,22,14.70
2014,07,17,17,23,14.60
2014,07,17,17,24,14.50
2014,07,17,17,25,14.40
2014,07,17,17,26,14.30
2014,07,17,17,27,14.20
2014,07,17,17,28,14.20
2014,07,17,17,29,14.20
2014,07,17,17,30,14.20
2014,07,17,17,31,14.20
2014,07,17,17,32,14.20
2014,07,17,17,33,14.10
2014,07,17,17,34,14.10
2014,07,17,17,35,14.10
2014,07,17,17,36,14.20
2014,07,17,17,37,14.20
2014,07,17,17,38,14.10
2014,07,17,17,39,14.10
2014,07,17,17,40,14.10
2014,07,17,17,41,14.20
2014,07,17,17,42,14.20
2014,07,17,17,43,14.10
2014,07,17,17,44,14.10
2014,07,17,17,45,14.00
2014,07,17,17,46,14.10
2014,07,17,17,47,14.20
2014,07,17,17,48,14.20
2014,07,17,17,49,14.20
2014,07,17,17,50,14.30
2014,07,17,17,51,14.50
2014,07,17,17,52,14.60
2014,07,17,17,53,14.70
2014,07,17,17,54,14.80
2014,07,17,17,55,14.90
2014,07,17,17,56,15.00
2014,07,17,17,57,15.10
2014,07,17,17,58,15.20
2014,07,17,17,59,15.30
2014,07,17,18,00,15.30
2014,07,17,18,01,15.40
2014,07,17,18,02,15.40
2014,07,17,18,03,15.50
2014,07,17,18,04,15.60
2014,07,17,18,05,15.70
2014,07,17,18,06,15.90
2014,07,17,18,07,16.10
2014,07,17,18,08,16.20
2014,07,17,18,09,16.40
2014,07,17,18,10,16.50
2014,07,17,18,11,16.70
2014,07,17,18,12,16.90
2014,07,17,18,13,17.00
2014,07,17,18,14,17.20
2014,07,17,18,15,17.40
2014,07,17,18,16,17.60
2014,07,17,18,17,17.70
2014,07,17,18,18,17.80
2014,07,17,18,19,17.80
2014,07,17,18,20,17.80
2014,07,17,18,21,17.90
2014,07,17,18,22,17.90
2014,07,17,18,23,17.90
2014,07,17,18,24,17.90
2014,07,17,18,25,18.00
2014,07,17,18,26,18.10
2014,07,17,18,27,18.20
2014,07,17,18,28,18.20
2014,07,17,18,29,18.20
2014,07,17,18,30,18.20
2014,07,17,18,31,18.20
2014,07,17,18,32,18.30
2014,07,17,18,33,18.40
2014,07,17,18,34,18.40
2014,07,17,18,35,18.50
2014,07,17,18,36,18.60
2014,07,17,18,37,18.50
2014,07,17,18,38,18.60
2014,07,17,18,39,18.60
2014,07,17,18,40,18.70
2014,07,17,18,41,18.80
2014,07,17,18,42,18.90
2014,07,17,18,43,19.00
2014,07,17,18,44,19.20
2014,07,17,18,45,19.30
2014,07,17,18,46,19.40
2014,07,17,18,47,19.50
2014,07,17,18,48,19.50
2014,07,17,18,49,19.50
2014,07,17,18,50,19.60
2014,07,17,18,51,19.50
2014,07,17,18,52,19.50
2014,07,17,18,53,19.40
2014,07,17,18,54,19.30
2014,07,17,18,55,19.20
2014,07,17,18,56,19.10
2014,07,17,18,57,19.10
2014,07,17,18,58,19.10
2014,07,17,18,59,18.90
2014,07,17,19,00,18.90
2014,07,17,19,01,18.90
2014,07,17,19,02,18.90
2014,07,17,19,03,18.90
2014,07,17,19,04,18.90
2014,07,17,19,05,19.00
2014,07,17,19,06,19.10
2014,07,17,19,07,19.30
2014,07,17,19,08,19.40
2014,07,17,19,09,19.50
2014,07,17,19,10,19.60
2014,07,17,19,11,19.70
2014,07,17,19,12,19.90
2014,07,17,19,13,19.90
2014,07,17,19,14,20.10
2014,07,17,19,15,20.20
2014,07,17,19,16,20.20
2014,07,17,19,17,20.20
2014,07,17,19,18,20.20
2014,07,17,19,19,20.20
2014,07,17,19,20,20.30
2014,07,17,19,21,20.30
2014,07,17,19,22,20.30
2014,07,17,19,23,20.30
2014,07,17,19,24,20.30
2014,07,17,19,25,20.30
2014,07,17,19,26,20.30
2014,07,17,19,27,20.20
2014,07,17,19,28,20.20
2014,07,17,19,29,20.20
2014,07,17,19,30,20.20
2014,07,17,19,31,20.20
2014,07,17,19,32,20.20
2014,07,17,19,33,20.20
2014,07,17,19,34,20.20
2014,07,17,19,35,20.10
2014,07,17,19,36,20.10
2014,07,17,19,37,20.00
2014,07,17,19,38,19.90
2014,07,17,19,39,19.90
2014,07,17,19,40,19.90
2014,07,17,19,41,19.90
2014,07,17,19,42,19.90
2014,07,17,19,43,19.80
2014,07,17,19,44,19.80
2014,07,17,19,45,19.70
2014,07,17,19,46,19.70
2014,07,17,19,47,19.60
2014,07,17,19,48,19.60
2014,07,17,19,49,19.60
2014,07,17,19,50,19.50
2014,07,17,19,51,19.50
2014,07,17,19,52,19.40
2014,07,17,19,53,19.40
2014,07,17,19,54,19.30
2014,07,17,19,55,19.20
2014,07,17,19,56,19.20
2014,07,17,19,57,19.20
2014,07,17,19,58,19.10
2014,07,17,19,59,19.10
2014,07,17,20,00,19.10
2014,07,17,20,01,18.90
2014,07,17,20,02,18.90
2014,07,17,20,03,18.90
2014,07,17,20,04,18.90
2014,07,17,20,05,18.90
2014,07,17,20,06,18.90
2014,07,17,20,07,18.90
2014,07,17,20,08,18.80
2014,07,17,20,09,18.80
2014,07,17,20,10,18.70
2014,07,17,20,11,18.70
2014,07,17,20,12,18.60
2014,07,17,20,13,18.60
2014,07,17,20,14,18.60
2014,07,17,20,15,18.50
2014,07,17,20,16,18.50
2014,07,17,20,17,18.50
2014,07,17,20,18,18.40
2014,07,17,20,19,18.40
2014,07,17,20,20,18.30
2014,07,17,20,21,18.30
2014,07,17,20,22,18.30
2014,07,17,20,23,18.30
2014,07,17,20,24,18.30
2014,07,17,20,25,18.20
2014,07,17,20,26,18.20
2014,07,17,20,27,18.20
2014,07,17,20,28,18.20
2014,07,17,20,29,18.20
2014,07,17,20,30,18.10
2014,07,17,20,31,18.10
2014,07,17,20,32,18.00
2014,07,17,20,33,17.90
2014,07,17,20,34,17.90
2014,07,17,20,35,17.90
2014,07,17,20,36,17.80
2014,07,17,20,37,17.80
2014,07,17,20,38,17.70
2014,07,17,20,39,17.70
2014,07,17,20,40,17.60
2014,07,17,20,41,17.60
2014,07,17,20,42,17.50
2014,07,17,20,43,17.50
2014,07,17,20,44,17.40
2014,07,17,20,45,17.40
2014,07,17,20,46,17.30
2014,07,17,20,47,17.30
2014,07,17,20,48,17.30
2014,07,17,20,49,17.20
2014,07,17,20,50,17.10
2014,07,17,20,51,17.10
2014,07,17,20,52,17.00
2014,07,17,20,53,17.00
2014,07,17,20,54,17.00
2014,07,17,20,55,16.90
2014,07,17,20,56,16.90
2014,07,17,20,57,16.80
2014,07,17,20,58,16.70
2014,07,17,20,59,16.70
2014,07,17,21,00,16.70
2014,07,17,21,01,16.70
2014,07,17,21,02,16.60
2014,07,17,21,03,16.60
2014,07,17,21,04,16.60
2014,07,17,21,05,16.50
2014,07,17,21,06,16.40
2014,07,17,21,07,16.40
2014,07,17,21,08,16.40
2014,07,17,21,09,16.30
2014,07,17,21,10,16.30
2014,07,17,21,11,16.30
2014,07,17,21,12,16.30
2014,07,17,21,13,16.30
2014,07,17,21,14,16.30
2014,07,17,21,15,16.30
2014,07,17,21,16,16.30
2014,07,17,21,17,16.30
2014,07,17,21,18,16.30
2014,07,17,21,19,16.30
2014,07,17,21,20,16.30
2014,07,17,21,21,16.30
2014,07,17,21,22,16.30
2014,07,17,21,23,16.30
2014,07,17,21,24,16.30
2014,07,17,21,25,16.30
2014,07,17,21,26,16.30
2014,07,17,21,27,16.30
2014,07,17,21,28,16.30
2014,07,17,21,29,16.30
2014,07,17,21,30,16.30
2014,07,17,21,31,16.30
2014,07,17,21,32,16.30
2014,07,17,21,33,16.30
2014,07,17,21,34,16.30
2014,07,17,21,35,16.30
2014,07,17,21,36,16.30
2014,07,17,21,37,16.40
2014,07,17,21,38,16.40
2014,07,17,21,39,16.30
2014,07,17,21,40,16.30
2014,07,17,21,41,16.30
2014,07,17,21,42,16.30
2014,07,17,21,43,16.30
2014,07,17,21,44,16.30
2014,07,17,21,45,16.30
2014,07,17,21,46,16.20
2014,07,17,21,47,16.20
2014,07,17,21,48,16.20
2014,07,17,21,49,16.10
2014,07,17,21,50,16.10
2014,07,17,21,51,16.10
2014,07,17,21,52,16.10
2014,07,17,21,53,16.10
2014,07,17,21,54,16.10
2014,07,17,21,55,16.10
2014,07,17,21,56,16.00
2014,07,17,21,57,15.90
2014,07,17,21,58,15.90
2014,07,17,21,59,15.80
2014,07,17,22,00,15.80
2014,07,17,22,01,15.80
2014,07,17,22,02,15.70
2014,07,17,22,03,15.70
2014,07,17,22,04,15.70
2014,07,17,22,05,15.60
2014,07,17,22,06,15.60
2014,07,17,22,07,15.60
2014,07,17,22,08,15.50
2014,07,17,22,09,15.50
2014,07,17,22,10,15.50
2014,07,17,22,11,15.40
2014,07,17,22,12,15.40
2014,07,17,22,13,15.30
2014,07,17,22,14,15.30
2014,07,17,22,15,15.30
2014,07,17,22,16,15.30
2014,07,17,22,17,15.30
2014,07,17,22,18,15.30
2014,07,17,22,19,15.30
2014,07,17,22,20,15.20
2014,07,17,22,21,15.20
2014,07,17,22,22,15.20
2014,07,17,22,23,15.20
2014,07,17,22,24,15.20
2014,07,17,22,25,15.20
2014,07,17,22,26,15.20
2014,07,17,22,27,15.20
2014,07,17,22,28,15.20
2014,07,17,22,29,15.20
2014,07,17,22,30,15.20
2014,07,17,22,31,15.20
2014,07,17,22,32,15.20
2014,07,17,22,33,15.20
2014,07,17,22,34,15.20
2014,07,17,22,35,15.10
2014,07,17,22,36,15.10
2014,07,17,22,37,15.10
2014,07,17,22,38,15.10
2014,07,17,22,39,15.00
2014,07,17,22,40,15.00
2014,07,17,22,41,15.00
2014,07,17,22,42,14.90
2014,07,17,22,43,14.90
2014,07,17,22,44,14.90
2014,07,17,22,45,14.80
2014,07,17,22,46,14.80
2014,07,17,22,47,14.80
2014,07,17,22,48,14.80
2014,07,17,22,49,14.80
2014,07,17,22,50,14.80
2014,07,17,22,51,14.80
2014,07,17,22,52,14.80
2014,07,17,22,53,14.70
2014,07,17,22,54,14.70
2014,07,17,22,55,14.70
2014,07,17,22,56,14.70
2014,07,17,22,57,14.60
2014,07,17,22,58,14.60
2014,07,17,22,59,14.60
2014,07,17,23,00,14.60
2014,07,17,23,01,14.60
2014,07,17,23,02,14.50
2014,07,17,23,03,14.50
2014,07,17,23,04,14.50
2014,07,17,23,05,14.50
2014,07,17,23,06,14.50
2014,07,17,23,07,14.50
2014,07,17,23,08,14.50
2014,07,17,23,09,14.50
2014,07,17,23,10,14.40
2014,07,17,23,11,14.40
2014,07,17,23,12,14.40
2014,07,17,23,13,14.40
2014,07,17,23,14,14.40
2014,07,17,23,15,14.40
2014,07,17,23,16,14.40
2014,07,17,23,17,14.40
2014,07,17,23,18,14.40
2014,07,17,23,19,14.30
2014,07,17,23,20,14.30
2014,07,17,23,21,14.30
2014,07,17,23,22,14.30
2014,07,17,23,23,14.30
2014,07,17,23,24,14.20
2014,07,17,23,25,14.20
2014,07,17,23,26,14.20
2014,07,17,23,27,14.20
2014,07,17,23,28,14.20
2014,07,17,23,29,14.20
2014,07,17,23,30,14.20
2014,07,17,23,31,14.20
2014,07,17,23,32,14.20
2014,07,17,23,33,14.20
2014,07,17,23,34,14.20
2014,07,17,23,35,14.10
2014,07,17,23,36,14.10
2014,07,17,23,37,14.10
2014,07,17,23,38,14.00
2014,07,17,23,39,14.00
2014,07,17,23,40,14.00
2014,07,17,23,41,14.00
2014,07,17,23,42,14.00
2014,07,17,23,43,14.00
2014,07,17,23,44,14.00
2014,07,17,23,45,13.90
2014,07,17,23,46,13.90
2014,07,17,23,47,13.90
2014,07,17,23,48,13.90
2014,07,17,23,49,13.90
2014,07,17,23,50,13.90
2014,07,17,23,51,13.90
2014,07,17,23,52,13.90
2014,07,17,23,53,13.90
2014,07,17,23,54,13.90
2014,07,17,23,55,13.90
2014,07,17,23,56,14.00
2014,07,17,23,57,14.00
2014,07,17,23,58,14.00
2014,07,17,23,59,13.90
